Orbital Elements at Epoch 2459000.5 (2020-May-31.0) TDB
Reference: JPL 24 (heliocentric ecliptic J2000)
Element | Value | Uncertainty (1-sigma) | Units |
e | .1321060794337241 | 4.2692e-08 | |
a | 2.982784908591848 | 2.0962e-08 | au |
q | 2.5887408885237 | 1.3427e-07 | au |
i | 9.51879665447832 | 3.4301e-06 | deg |
node | 230.5156169681864 | 2.9371e-05 | deg |
peri | 70.49963920668833 | 3.6746e-05 | deg |
M | 359.2348470722025 | 1.8815e-05 | deg |
tp | 2459004.499236395899 (2020-Jun-03.99923640) | 9.8327e-05 | TDB |
period | 1881.617452170804 5.15 | 1.9835e-05 5.431e-08 | d yr |
n | .1913247560414958 | 2.0169e-09 | deg/d |
Q | 3.376828928659996 | 2.3732e-08 | au |
|
| | Orbit Determination Parameters
Additional Information
|